CAPE
0 0 0 0 0 0 0 0 0 0 0 0 0 0 0 0 0 0 0 0 0 0 0 0 0 0 0 0 0 0 0 0 0 0 0 0 0 0 0 0 0 0 0 0 0 0 0
0 0 0 0 0 0 0 0 0 0 0 0 0 0 0 0 0 0 0 0 0 0 0 0 0 0 0 0 0 0 0 0 0 0 0 0 0 0 0 0 0 0 0 0 0 0 0
0 0 0 0 0 0 0 0 0 0 0 0 0 0 0 0 0 0 0 0 0 0 0 0 0 0 0 0 0 0 0 0 0 0 0 0 0 0 0 0 0 0 0 0 0 0 0
0 0 0 0 0 0 0 0 0 0 0 0 0 0 0 0 0 0 0 0 0 0 0 0 0 0 0 0 0 0 0 0 0 0 0 0 0 0 0 0 0 0 0 0 0 0 0
0 0 0 0 0 0 0 0 0 0 0 0 0 0 0 0 0 0 0 0 0 0 0 0 0 0 0 0 0 0 0 0 0 0 0 0 0 0 0 0 0 0 0 0 0 0 0
0 0 0 0 0 0 0 0 0 0 0 0 0 0 0 0 0 0 0 0 0 0 0 0 0 0 0 0 0 0 0 0 0 0 0 0 0 0 0 0 0 0 0 0 0 0 0
0 0 0 0 0 0 0 0 0 0 0 0 0 0 0 0 0 0 0 0 0 0 0 0 0 0 0 0 0 0 0 0 0 0 0 0 0 0 0 0 0 0 0 0 0 0 0
0 0 0 0 0 0 0 0 0 0 0 0 0 0 0 0 0 0 0 0 0 0 0 0 0 0 0 0 0 0 0 0 0 0 0 0 0 0 0 0 0 0 0 0 0 0 0
0 0 0 0 0 0 0 0 0 0 0 0 0 0 0 0 0 0 0 0 0 0 0 0 0 0 0 0 0 0 0 0 0 0 0 0 0 0 0 0 0 0 0 0 0 0 0
0 0 0 0 0 0 0 0 0 0 0 0 0 0 0 0 0 0 0 0 0 0 0 0 0 0 0 0 0 0 0 0 0 0 0 0 0 0 0 0 0 0 0 0 0 0 0
0 0 0 0 0 0 0 0 0 0 0 0 0 0 0 0 0 0 0 0 0 0 0 0 0 0 0 0 0 0 0 0 0 0 0 0 0 0 0 0 0 0 0 0 0 0 0
0 0 0 0 0 0 0 0 0 0 0 0 0 0 0 0 0 0 0 0 0 0 0 0 0 0 0 0 0 0 0 0 0 0 0 0 0 0 0 0 0 0 0 0 0 0 0
0 0 0 0 0 0 0 0 0 0 0 0 0 0 0 0 0 0 0 0 0 0 0 0 0 0 0 0 0 0 0 0 0 0 0 0 0 0 0 0 0 0 0 0 0 0 0
0 0 0 0 0 0 0 0 0 0 0 0 0 0 0 0 0 0 0 0 0 0 0 0 0 0 0 0 0 0 0 0 0 0 0 0 0 0 0 0 0 0 0 0 0 0 0
0 0 0 0 0 0 0 0 0 0 0 0 0 1 0 0 0 0 0 2 0 0 0 0 0 0 0 0 0 0 0 0 0 0 0 0 0 0 0 0 0 0 0 0 0 0 0
0 0 0 0 0 0 0 0 0 0 0 0 0 1 1 2 0 0 0 0 0 0 0 0 2 0 0 0 0 0 0 0 0 0 0 0 0 0 0 0 0 0 0 0 0 0 0
0 0 0 0 0 0 0 0 0 0 0 1 0 0 2 1 0 0 0 0 0 0 0 0 0 0 1 1 0 3 0 0 0 0 0 0 0 0 0 0 0 0 0 0 0 0 0
0 0 0 0 0 0 0 0 0 0 0 3 1 0 0 0 0 0 0 0 0 0 0 0 0 0 1 0 6 3 2 1 0 0 0 0 0 0 0 0 0 0 0 0 0 0 0
0 0 0 0 0 0 0 0 0 0 1 0 0 1 0 1 0 0 1 0 0 0 0 0 0 0 0 0 1 3 1 0 0 0 0 0 0 0 0 0 0 0 0 0 0 0 0
0 0 0 0 0 0 0 0 0 0 1 0 0 0 0 1 1 0 0 0 0 0 0 0 0 1 3 1 3 1 1 0 0 0 0 0 0 0 0 0 0 0 0 0 0 0 0
0 0 0 0 0 0 0 0 0 1 0 0 0 0 0 0 2 0 1 1 0 0 1 2 2 2 0 0 2 1 0 1 0 0 0 0 0 0 0 0 0 0 0 0 0 0 0
0 0 0 0 0 0 0 0 0 1 0 0 0 0 2 3 1 1 3 0 0 2 0 0 1 0 1 0 0 0 0 0 0 0 0 0 0 0 0 0 0 0 0 0 0 0 0
0 0 0 0 0 0 0 0 0 2 0 0 2 0 0 3 3 2 1 0 0 1 1 3 0 1 1 0 2 4 3 1 0 0 0 0 0 0 0 0 0 0 0 0 0 0 8
0 1 1 1 1 1 0 0 1 2 0 0 0 0 0 0 1 0 1 1 2 1 0 2 3 0 1 0 0 0 0 0 0 0 0 0 0 0 0 0 0 0 0 0 2 15 0
0 0 2 3 3 1 1 2 3 0 0 0 0 0 0 0 2 3 1 1 2 3 1 1 2 0 0 0 0 0 0 0 0 0 0 0 0 0 0 0 0 0 0 0 0 0 0
3 7 8 7 6 5 3 0 0 0 0 0 0 0 0 0 1 2 1 1 0 0 0 0 0 0 0 0 0 0 0 0 0 0 0 0 0 0 0 0 0 0 3 0 0 0 0
6 4 2 0 0 0 0 0 0 0 0 0 0 0 0 0 0 0 0 0 0 0 0 0 0 0 0 0 0 0 0 0 0 0 0 0 0 0 1 0 8 0 0 0 0 0 0
2 1 0 0 0 0 0 0 0 0 0 0 0 0 0 0 0 0 0 0 0 0 0 0 0 0 0 0 0 0 0 0 0 0 4 3 0 0 0 0 0 0 0 0 0 0 0
1 2 0 0 0 0 0 0 0 0 0 0 0 0 0 0 0 0 0 0 0 0 0 0 0 0 0 0 0 0 0 0 0 0 0 0 0 0 0 0 0 7 0 0 0 0 0
CIN
0 0 0 0 0 0 0 0 0 0 0 0 0 0 0 0 0 0 0 0 0 0 0 0 0 0 0 0 0 0 0 0 0 0 0 0 0 0 0 0 0 0 0 0 0 0 0
0 0 0 0 0 0 0 0 0 0 0 0 0 0 0 0 0 0 0 0 0 0 0 0 0 0 0 0 0 0 0 0 0 0 0 0 0 0 0 0 0 0 0 0 0 0 0
0 0 0 0 0 0 0 0 0 0 0 0 0 0 0 0 0 0 0 0 0 0 0 0 0 0 0 0 0 0 0 0 0 0 0 0 0 0 0 0 0 0 0 0 0 0 0
0 0 0 0 0 0 0 0 0 0 0 0 0 0 0 0 0 0 0 0 0 0 0 0 0 0 0 0 0 0 0 0 0 0 0 0 0 0 0 0 0 0 0 0 0 0 0
0 0 0 0 0 0 0 0 0 0 0 0 0 0 0 0 0 0 0 0 0 0 0 0 0 0 0 0 0 0 0 0 0 0 0 0 0 0 0 0 0 0 0 0 0 0 0
0 0 0 0 0 0 0 0 0 0 0 0 0 0 0 0 0 0 0 0 0 0 0 0 0 0 0 0 0 0 0 0 0 0 0 0 0 0 0 0 0 0 0 0 0 0 0
0 0 0 0 0 0 0 0 0 0 0 0 0 0 0 0 0 0 0 0 0 0 0 0 0 0 0 0 0 0 0 0 0 0 0 0 0 0 0 0 0 0 0 0 0 0 0
0 0 0 0 0 0 0 0 0 0 0 0 0 0 0 0 0 0 0 0 0 0 0 0 0 0 0 0 0 0 0 0 0 0 0 0 0 0 0 0 0 0 0 0 0 0 0
0 0 0 0 0 0 0 0 0 0 0 0 0 0 0 0 0 0 0 0 0 0 0 0 0 0 0 0 0 0 0 0 0 0 0 0 0 0 0 0 0 0 0 0 0 0 0
0 0 0 0 0 0 0 0 0 0 0 0 0 0 0 0 0 0 0 0 0 0 0 0 0 0 0 0 0 0 0 0 0 0 0 0 0 0 0 0 0 0 0 0 0 0 0
0 0 0 0 0 0 0 0 0 0 0 0 0 0 0 0 0 0 0 0 0 0 0 0 0 0 0 0 0 0 0 0 0 0 0 0 0 0 0 0 0 0 0 0 0 0 0
0 0 0 0 0 0 0 0 0 0 0 0 0 0 0 0 0 0 0 0 0 0 0 0 0 0 0 0 0 0 0 0 0 0 0 0 0 0 0 0 0 0 0 0 0 0 0
0 0 0 0 0 0 0 0 0 0 0 0 0 0 0 0 0 0 0 0 0 0 0 0 0 0 0 0 0 0 0 0 0 0 0 0 0 0 0 0 0 0 0 0 0 0 0
0 0 0 0 0 0 0 0 0 0 0 0 0 0 0 0 0 0 0 0 0 0 0 0 0 0 0 0 0 0 0 0 0 0 0 0 0 0 0 0 0 0 0 0 0 0 0
0 0 0 0 0 0 0 0 0 0 0 0 0 0 0 0 0 0 0 0 0 0 0 0 0 0 0 0 0 0 0 0 0 0 0 0 0 0 0 0 0 0 0 0 0 0 0
0 0 0 0 0 0 0 0 0 0 0 0 0 0 0 0 0 0 0 0 0 0 0 0 0 0 0 0 0 -1 0 0 0 0 0 0 0 0 0 0 0 0 0 0 0 0 0
-4 0 0 0 0 0 0 0 0 0 0 0 0 0 0 0 0 0 0 0 0 0 0 0 0 0 0 0 0 0 0 0 0 0 0 0 0 0 0 0 0 0 0 0 0 0 -2
0 0 0 0 0 0 0 0 0 0 0 0 0 0 0 0 0 0 0 0 0 0 0 0 0 0 0 0 0 0 0 0 0 0 0 0 0 0 0 0 0 0 0 0 0 0 0
0 0 0 0 0 0 0 0 0 0 0 0 0 0 0 0 0 0 0 0 0 0 0 0 0 0 0 0 0 0 0 0 0 0 0 0 0 0 0 0 0 0 0 0 0 0 0
0 0 0 0 0 0 0 0 0 0 0 0 0 0 0 0 0 0 0 0 0 0 0 0 0 0 0 0 0 0 0 0 0 0 0 0 0 0 0 0 0 0 0 0 0 0 0
0 0 0 0 0 0 0 0 0 0 0 0 0 0 0 0 0 0 0 0 0 0 0 0 0 0 0 0 0 0 0 0 0 0 0 0 0 0 0 0 0 0 0 0 0 0 0
0 0 0 0 0 0 0 0 0 0 0 0 0 0 0 0 0 0 0 0 0 0 0 0 0 0 0 0 0 0 0 0 0 0 0 0 0 0 0 0 0 0 0 0 0 0 0
-3 0 0 0 0 0 0 0 0 0 0 0 0 0 0 0 0 0 0 0 0 0 0 0 0 0 0 0 0 0 0 0 0 0 0 0 0 0 0 0 0 0 0 0 0 0 -5
0 0 0 0 0 0 0 0 0 0 0 0 0 0 0 0 0 0 0 0 0 0 0 0 0 0 0 0 0 0 0 0 0 0 0 -3 0 0 0 0 0 0 0 0 -5 -10 -34
0 0 0 0 0 0 0 0 0 0 0 0 0 0 0 0 0 0 0 0 0 0 0 0 0 0 -1 0 0 0 0 0 0 0 0 0 0 0 0 0 0 0 0 0 -25 0 0
0 0 0 0 0 0 0 0 0 0 0 0 0 0 0 0 0 0 0 0 0 0 0 0 0 0 0 0 0 0 0 0 0 0 0 0 0 0 0 0 0 0 -55 0 0 0 0
0 0 0 0 0 0 0 0 0 0 0 0 0 0 0 0 0 0 0 0 0 0 0 0 0 0 0 0 0 0 0 0 0 0 0 0 -5 0 -48 -6 -33 -49 0 0 0 0 0
0 0 0 0 0 0 0 0 0 0 0 0 0 0 0 0 0 0 0 0 0 0 0 0 0 0 0 0 0 0 0 0 0 -5 -5 -33 0 -15 0 0 0 0 0 0 0 0 0
0 0 0 0 0 0 0 0 0 0 0 0 0 0 0 0 0 0 0 0 0 0 0 0 0 0 0 0 0 0 0 0 0 0 0 0 0 0 0 0 0 -34 0 0 0 0 0
Wind_Speed
22 20 19 20 20 20 18 20 22 22 22 22 24 25 26 28 33 35 36 34 29 34 41 44 43 42 36 31 15 16 12 12 15 15 16 21 22 27 33 24 28 27 36 40 39 39 36
23 22 21 20 20 20 18 19 20 23 23 23 24 26 26 30 35 37 36 32 25 23 35 43 41 37 30 37 19 11 12 10 12 11 16 13 18 28 34 35 34 35 40 41 41 42 42
27 23 22 22 21 21 20 19 19 20 24 23 23 25 26 30 36 37 38 26 17 24 30 42 34 27 25 11 17 16 14 8 7 6 6 12 10 24 28 33 31 34 39 41 39 42 32
28 27 24 23 22 20 20 19 20 23 23 23 23 24 25 31 36 39 43 24 24 30 29 32 22 21 22 20 18 16 20 23 18 6 22 26 27 28 25 28 37 40 36 34 38 19 12
30 28 26 24 24 22 21 19 20 21 23 23 22 23 24 30 35 39 44 35 30 25 25 22 20 18 20 13 17 16 18 17 25 14 18 19 19 19 22 23 30 22 18 16 22 20 30
32 30 28 25 24 23 23 20 20 21 21 22 23 22 25 31 35 39 45 38 21 16 28 21 19 21 15 12 29 27 20 8 10 17 22 5 13 11 14 10 12 21 22 30 38 39 44
34 31 29 26 23 23 22 21 21 19 21 21 22 22 25 29 34 38 40 38 37 26 34 26 17 23 32 34 34 21 12 13 8 10 13 13 7 11 9 10 13 22 37 41 39 41 44
35 33 30 25 25 25 23 21 19 21 19 20 20 23 25 28 33 36 33 33 34 31 35 24 11 10 10 10 19 12 13 13 12 13 8 15 7 9 15 19 24 29 38 41 39 38 38
35 35 29 27 27 25 24 21 21 20 19 20 19 22 25 27 33 30 30 31 31 34 30 35 23 16 13 10 13 10 11 18 21 24 21 17 28 35 31 29 34 32 38 42 46 44 38
37 33 29 30 28 27 26 22 19 21 20 19 20 21 22 27 28 30 28 32 32 29 33 23 20 18 15 13 14 8 11 16 21 24 30 24 28 26 30 30 32 34 33 35 42 47 46
38 33 34 31 31 30 26 22 21 21 21 18 20 19 19 22 27 29 29 30 31 25 35 20 18 15 14 12 20 10 9 16 25 28 28 26 36 36 37 36 37 41 34 35 37 43 52
39 37 33 32 32 28 27 24 21 22 21 18 19 18 18 23 24 23 27 25 26 27 27 24 18 18 17 13 18 18 14 23 33 36 31 30 31 32 33 33 33 34 34 36 38 37 48
42 37 36 34 31 30 27 26 23 20 21 20 18 16 16 21 27 25 19 23 28 23 26 22 23 22 22 25 26 23 30 38 38 42 37 40 35 32 33 36 30 31 34 43 45 36 42
44 40 35 36 34 30 28 26 23 23 22 21 18 16 21 20 24 21 22 26 27 22 21 29 29 36 33 34 37 37 38 40 30 31 37 38 40 29 30 31 34 32 30 35 47 46 47
42 36 37 35 32 30 29 25 23 24 22 18 17 19 23 22 19 16 22 29 26 24 25 30 35 36 34 26 31 34 33 36 30 29 31 34 33 25 30 29 28 32 33 30 39 43 48
39 38 38 35 34 31 29 26 24 23 20 15 20 22 26 18 14 15 24 31 27 22 28 28 32 31 36 34 33 33 30 29 29 28 26 32 45 30 31 29 27 30 29 37 35 47 50
39 37 37 36 34 32 31 26 25 21 17 16 23 29 23 12 15 20 28 28 29 25 25 28 31 35 33 35 33 33 35 34 27 28 26 30 33 36 37 32 36 34 34 34 36 37 48
34 36 36 35 36 31 30 30 25 21 16 15 22 33 18 12 21 23 27 28 28 28 24 26 31 33 34 32 35 36 34 28 27 29 35 29 33 39 38 36 33 36 38 37 41 43 38
34 35 39 35 34 32 32 27 22 20 17 18 23 25 20 20 29 26 29 28 29 31 31 31 31 29 30 35 39 34 32 30 26 28 30 26 33 43 42 30 24 32 32 35 37 38 44
36 31 36 37 33 31 32 28 29 21 21 21 24 32 26 25 28 32 29 32 32 27 30 29 32 29 30 35 30 34 31 28 26 27 23 25 34 38 45 42 39 43 43 40 39 44 48
34 36 37 35 37 32 25 27 26 19 19 25 26 32 24 29 31 31 29 31 32 34 25 24 28 27 30 35 33 34 33 28 26 23 24 27 40 36 39 39 41 43 44 43 44 45 50
33 33 36 34 33 33 23 29 23 17 16 25 30 29 26 29 30 29 29 33 33 30 27 30 29 27 25 30 29 32 28 27 28 24 26 25 40 36 46 38 41 45 43 42 43 43 45
30 30 33 27 28 26 26 23 21 15 18 25 22 23 26 28 28 28 32 29 29 23 25 24 23 25 26 28 27 24 25 25 25 28 29 30 36 41 54 43 44 50 42 43 42 39 42
22 24 28 24 24 24 23 19 16 14 17 20 22 21 27 33 28 29 28 25 24 21 25 22 22 22 22 18 20 24 27 29 29 31 31 36 38 40 48 46 56 43 31 35 39 31 29
20 16 12 12 13 11 13 10 9 12 14 18 16 20 23 30 25 26 24 23 20 18 20 20 20 19 15 22 31 36 35 35 33 31 31 27 34 41 45 46 44 44 38 33 32 33 25
11 10 6 5 3 5 6 6 6 7 9 12 15 16 21 26 25 19 18 17 20 18 18 18 15 16 19 24 30 38 41 37 36 35 23 27 28 35 39 46 49 35 25 23 25 32 21
7 3 3 1 1 3 3 3 2 3 4 9 13 14 16 19 18 16 20 17 14 15 19 15 18 21 22 27 33 36 40 34 42 43 43 40 34 37 37 40 34 24 25 22 25 24 28
7 5 4 3 5 6 5 4 5 6 7 12 11 14 10 14 15 16 17 17 17 17 20 15 21 24 26 31 33 33 36 34 37 35 34 34 34 32 30 33 36 18 19 25 21 26 31
13 12 11 9 6 4 5 6 6 8 8 8 8 12 13 13 12 12 15 17 18 18 14 16 20 19 20 25 25 27 31 32 33 36 29 30 27 30 24 26 32 24 26 22 27 33 29
Wind_Direction
265 271 278 285 292 300 310 316 320 328 332 339 343 344 347 348 341 339 339 343 332 287 297 311 318 319 333 333 342 349 2 345 317 311 306 303 300 285 264 302 298 257 262 276 284 289 297
263 268 275 281 288 296 305 313 318 321 327 335 340 341 345 344 334 335 342 346 346 286 286 313 321 327 335 315 351 13 9 4 330 315 309 311 303 279 279 282 287 291 279 279 281 288 292
262 265 271 278 284 291 300 308 315 319 322 330 337 341 344 341 331 335 339 348 307 286 282 315 331 340 337 277 347 350 355 8 353 324 324 311 311 302 298 292 297 294 289 282 267 286 259
260 264 268 275 281 287 294 302 309 312 319 327 335 338 344 336 331 329 324 290 291 285 279 332 343 347 336 338 344 346 340 317 312 343 297 289 292 296 304 303 289 283 299 305 272 324 307
258 262 266 272 278 284 289 297 304 310 315 324 333 337 342 335 331 330 320 294 290 284 275 343 346 352 345 10 360 2 348 351 311 333 321 311 315 314 309 312 306 315 311 302 265 303 319
257 260 264 269 274 280 285 292 299 305 315 322 328 336 339 332 332 331 323 297 292 342 347 2 347 339 344 345 321 327 331 347 336 329 316 351 340 336 328 320 312 321 318 315 313 314 309
256 259 263 266 271 276 282 288 295 303 311 319 325 334 337 335 333 332 336 345 347 356 338 337 328 321 260 302 302 336 14 8 44 358 341 336 332 323 323 304 299 314 311 311 315 315 312
254 258 260 263 268 273 278 284 290 296 308 315 325 330 334 335 335 332 344 348 346 346 312 339 298 298 237 332 326 349 7 350 353 353 354 335 317 317 320 316 313 312 309 311 315 318 316
252 255 258 261 265 269 273 280 285 292 302 310 322 326 331 335 333 339 345 345 350 348 343 327 352 356 353 7 334 345 5 333 321 323 328 322 313 310 316 317 315 313 310 313 313 317 317
251 253 254 258 262 266 271 276 281 288 297 307 315 324 331 332 337 338 342 341 344 355 336 353 2 5 5 2 340 338 348 342 331 324 324 323 321 324 321 317 315 312 316 315 315 316 314
250 251 253 256 259 263 267 271 278 285 293 305 310 319 329 335 330 332 338 342 339 352 323 350 3 19 11 349 328 333 338 331 324 320 321 316 313 312 311 310 310 308 314 314 314 312 310
248 249 251 253 257 260 263 268 274 282 291 301 306 315 323 325 330 333 333 347 341 332 326 340 351 349 347 342 327 328 316 319 317 311 310 306 311 312 312 311 313 312 312 312 311 311 306
246 247 250 251 254 258 260 266 272 280 288 295 300 307 313 322 323 334 339 338 328 323 334 336 336 337 328 323 317 315 310 310 312 310 310 311 311 312 320 315 315 315 314 309 309 307 306
244 247 247 250 253 254 259 264 273 279 286 290 296 302 307 312 318 328 325 320 314 324 322 320 323 315 315 315 308 308 308 309 311 311 312 313 314 318 325 321 314 314 313 304 303 306 308
243 245 246 248 249 252 258 263 270 277 283 288 297 303 305 309 312 318 307 301 306 318 321 318 317 314 315 321 318 315 312 308 313 313 308 313 312 327 322 322 321 316 307 312 304 305 304
241 243 245 247 248 252 257 261 268 273 278 280 292 299 300 314 307 306 298 296 303 306 314 317 314 315 314 314 313 314 313 318 315 316 318 314 307 316 319 322 318 310 314 307 308 304 302
241 240 244 246 248 252 256 261 265 268 269 273 288 293 304 313 304 293 289 297 301 302 303 305 304 305 310 314 312 310 307 309 312 312 320 315 309 309 313 311 310 311 307 308 308 302 303
239 244 242 246 250 250 255 259 261 262 262 272 283 283 308 309 289 293 284 297 304 301 308 301 303 301 302 308 309 308 306 305 312 311 310 311 310 306 307 308 305 306 307 307 304 304 304
252 246 247 246 248 251 256 255 251 250 238 277 281 289 300 298 282 285 298 297 299 299 301 303 301 302 305 303 305 304 306 309 306 306 309 312 308 309 313 318 317 316 315 316 314 311 301
257 254 247 249 248 254 254 255 256 241 245 270 278 283 294 284 289 292 289 295 296 309 304 302 302 305 302 300 301 307 307 310 308 307 310 313 305 302 301 304 312 306 306 308 308 302 303
255 257 251 253 253 254 255 262 262 249 254 268 273 282 283 288 282 287 293 300 302 303 303 304 305 295 299 301 301 298 301 307 307 307 308 306 301 302 303 305 307 306 305 307 304 303 300
257 258 253 254 248 254 258 261 259 253 258 273 269 279 290 289 291 285 290 299 299 306 304 304 300 300 296 298 300 306 306 304 306 309 306 307 304 305 302 305 305 302 303 305 304 304 303
259 258 251 248 260 259 265 263 257 242 252 275 280 283 288 289 292 294 297 296 302 305 307 306 301 305 303 300 305 310 311 309 307 307 305 304 306 305 301 306 306 302 306 305 305 305 308
251 257 255 262 262 262 267 263 242 223 262 278 278 288 289 288 289 296 306 306 303 304 309 314 315 306 316 324 322 318 311 307 303 299 298 298 300 302 302 306 300 309 313 309 310 317 322
252 261 256 256 259 265 260 249 219 243 275 289 288 291 295 296 299 303 307 311 314 315 317 317 320 322 327 325 315 312 312 311 308 300 297 295 299 302 301 300 303 310 316 316 317 315 327
218 231 246 245 220 232 244 243 250 269 287 293 298 309 302 304 302 315 314 316 318 318 323 328 335 336 330 322 317 310 308 313 313 315 324 305 296 297 301 303 306 317 328 332 331 313 336
166 196 226 180 265 75 103 79 329 326 320 311 312 321 316 314 327 321 317 316 325 320 317 315 320 323 326 318 313 310 308 312 309 309 311 311 310 298 296 300 309 318 327 335 322 322 330
136 139 135 98 83 80 62 34 347 329 322 315 324 329 332 327 334 341 335 329 325 320 317 322 321 321 320 315 316 315 314 315 314 318 319 317 316 312 313 310 311 334 328 321 323 322 320
112 96 91 86 91 56 22 11 349 348 347 345 347 334 346 342 339 351 350 348 343 341 334 326 328 328 326 323 322 325 321 321 319 316 324 316 323 319 316 313 314 323 325 329 315 299 271